Home   Weather   Irving   Past weeks

Flag for USA Past Weather in Irving, Texas, USA — Yesterday and Last 2 Weeks

Now
51 °F

Partly sunny.


Feels Like: 46 °F
Forecast: 50 / 65 °F
Wind: 16 mph from West

Location: Dallas / Fort Worth International Airport

Current Time: Apr 30, 2017 at 10:13:14 am

Latest Report: Apr 30, 2017 at 8:53 am


Visibility: 10 mi

Pressure: 29.80 "Hg

Humidity: 59%

Dew Point: 37 °F

Location of IrvingLocation

Past Weather in Irving — Graph

°F

Irving Temperature Yesterday

Maximum temperature yesterday: 90 °F (at 1:53 pm)
Minimum temperature yesterday: 58 °F (at 7:53 pm)
Average temperature yesterday: 75 °F

High & Low Weather Summary for the Past Weeks

 TemperatureHumidityPressure
High90 °F (Apr 29, 1:53 pm)97% (Apr 17, 5:53 pm)30.15 "Hg (Apr 17, 5:53 pm)
Low48 °F (Apr 27, 3:53 am)28% (Apr 23, 4:53 pm)29.37 "Hg (Apr 26, 1:53 am)
Average70 °F71%29.82 "Hg
* Reported Apr 15 8:53 am — Apr 30 8:53 am, Irving, Weather by CustomWeather, © 2017

Note: Actual official high and low records may vary slightly from our data, if they occured in-between our weather recording intervals... More about our weather records

Advertising

Irving Weather History for the Previous 24 Hours

Scroll right to see more
 ConditionsComfort  
Time TempWeatherWind HumidityBarometerVisibility
8:53 am
Sun, Apr 30
51 °FPartly sunny.16 mph59%29.80 "Hg10 mi
7:53 am50 °FPartly sunny.16 mph63%29.79 "Hg10 mi
6:53 am50 °FPartly sunny.21 mph66%29.76 "Hg10 mi
5:53 am51 °FPartly cloudy.18 mph69%29.71 "Hg10 mi
4:53 am53 °FOvercast.20 mph74%29.72 "Hg10 mi
4:25 am53 °FMostly cloudy.16 mph77%29.74 "Hg10 mi
3:53 am54 °FOvercast.20 mph77%29.75 "Hg10 mi
3:33 am54 °FOvercast.18 mph80%29.74 "Hg10 mi
2:53 am54 °FThunderstorms. Mostly cloudy.9 mph80%29.72 "Hg10 mi
2:05 am56 °FThunderstorms. Mostly cloudy.12 mph75%29.76 "Hg10 mi
12:53 am57 °FOvercast.17 mph69%29.73 "Hg10 mi
11:53 pm
Sat, Apr 29
58 °FOvercast.14 mph70%29.73 "Hg10 mi
10:53 pm58 °FMostly cloudy.20 mph70%29.75 "Hg10 mi
9:53 pm58 °FMostly cloudy.16 mph75%29.74 "Hg10 mi
8:53 pm58 °FMostly cloudy.20 mph78%29.68 "Hg10 mi
7:53 pm58 °FLight rain. Overcast.22 mph84%29.63 "Hg8 mi
6:53 pm61 °FMostly cloudy.28 mph75%29.58 "Hg10 mi
6:38 pm62 °FMostly cloudy.25 mph73%29.61 "Hg10 mi
5:53 pm67 °FBroken clouds.23 mph63%29.54 "Hg10 mi
4:53 pm76 °FScattered clouds.21 mph56%29.48 "Hg10 mi
3:53 pm82 °FPartly sunny.17 mph55%29.49 "Hg10 mi
3:33 pm83 °FPartly sunny.17 mph55%29.52 "Hg10 mi
1:53 pm90 °FBroken clouds.24 mph52%29.51 "Hg10 mi
12:53 pm85 °FMostly cloudy.25 mph61%29.53 "Hg10 mi
11:53 am87 °FPartly sunny.26 mph55%29.54 "Hg10 mi
10:53 am84 °FCloudy.20 mph63%29.53 "Hg9 mi
10:15 am83 °FMostly cloudy.26 mph68%29.55 "Hg7 mi
Weather by CustomWeather, © 2017

See weather overviewHow to use our weather pages